Location: ??????
(31.2056°N, 45.3906°E)
Time: 22:02:35
(UTC+00:00)

Cosmos 1953 - Pass Details

Date: 09 April 2020
Orbit: 539 x 557 km, 82.5° (Epoch: 02 June)

Event Time Altitude Azimuth Distance (km) Brightness Sun altitude
Rises 16:15:43 0° 206° (SSW) 2,681 5.9 -11.8°
Reaches altitude 10° 16:18:01 10° 216° (SW) 1,795 5.2 -12.2°
Maximum altitude 16:21:33 31° 280° (W) 957 4.4 -13.0°
Drops below altitude 10° 16:25:08 10° 344° (NNW) 1,813 5.4 -13.7°
Sets 16:27:29 0° 354° (N) 2,712 6.2 -14.2°
